OneWeb SL0277

operational
NORAD ID: 48995 Int'l Des: 2021-060 Owner: ONEWEBN Country: UK Constellation: oneweb
LEOCIRCULARPOLARONEWEB_TYPE

About OneWeb SL0277

Description loading...

Live Position

Loading 3D Globe...

Upcoming Passes

Altitude History

Altitude vs Time

uPlot chart will show altitude changes over time

Two-Line Element Set

1 48995U 21060AE 26061.04358537 -.00000349 00000-0 -94649-3 0 9997
2 48995 87.8990 250.1073 0001648 98.9939 261.1379 13.16593797225461
Epoch: Mar 2, 2026 • Age: 28 hours

Current Status

Altitude 1207.6 km
Velocity 7.25 km/s
Sub-Earth Point -25.25°S, 144.35°W
Launch Date Jul 1, 2021
Age 4.6 years
Type internet

Technical Details

Classification Payload
Mass 148.00 kg
Dry Mass 140.00 kg
Total Mass 148.00 kg
Length 1.30 m
Diameter 1.00 m
Span 5.00 m
Shape Trapezoid+2 pan
Manufacturer ONEWUS
Bus Type ARROW
Phase Status In Orbit
Owner/State ONEWEBN/UK

Large Constellations

Loading constellations...